Location: Vancouver
(49.2827°N, 123.1207°W)
Time: 23:57:24
(UTC-07:00)

ISS - Pass Details

Date: 27 June 2024
Orbit: 410 x 424 km, 51.6° (Epoch: 13 July)

Event Time Altitude Azimuth Distance (km) Brightness Sun altitude
Exits shadow 04:04:43 11° 229° (SW) 1,410 -1.7 -8.3°
Maximum altitude 04:07:47 53° 152° (SSE) 520 -3.4 -8.0°
Drops below altitude 10° 04:11:04 10° 75° (ENE) 1,497 0.0 -7.6°
Sets 04:13:12 0° 71° (ENE) 2,367 1.2 -7.4°
